Fort Myers, FL

5:30 PM EDT on May 25, 2017 (GMT -0400)
Page

Weather History for KFMY - October, 2013

Change the Weather History Date:

Monday, October 7, 2013

  Actual Average Record
Temperature  
Mean Temperature 81 °F 80 °F  
Max Temperature 87 °F 88 °F 94 °F (1986)
Min Temperature 75 °F 71 °F 62 °F (1932)
Degree Days  
Heating Degree Days 0 0  
Month to date heating degree days 0 0  
Since 1 July heating degree days 0 0  
Cooling Degree Days 16 15  
Month to date cooling degree days 115 108  
Year to date cooling degree days 3320 3354  
Growing Degree Days 30 (Base 50)    
Moisture  
Dew Point 74 °F    
Average Humidity 82    
Maximum Humidity 94    
Minimum Humidity 69    
Precipitation  
Precipitation 0.01 in 0.10 in 1.44 in (2005)
Month to date precipitation 1.16 0.95  
Year to date precipitation 51.68 50.33  
Sea Level Pressure  
Sea Level Pressure 29.85 in    
Wind  
Wind Speed 9 mph (SW)    
Max Wind Speed 30 mph    
Max Gust Speed 38 mph    
Visibility 10 miles    
Events Rain    
T = Trace of Precipitation, MM = Missing Value Source: NWS Daily Summary

Daily Weather History Graph

Daily Weather History Graph

Search for Another Location

Airport or City:

Trip Planner

Search our weather history database for the weather conditions in past years. The results will help you decide how hot, cold, wet, or windy it might be!

Date:

Astronomy

Oct. 07, 2013 Rise Set
Actual Time 7:22 AM EDT 7:07 PM EDT
Civil Twilight 6:59 AM EDT 7:30 PM EDT
Nautical Twilight 6:32 AM EDT 7:57 PM EDT
Astronomical Twilight 6:05 AM EDT 8:23 PM EDT
Moon 9:54 AM EDT (10/7) 9:09 PM EDT (10/7)
Length of Visible Light 12h 30m
Length of Day
11h 44m
Waxing Crescent, 8% of the Moon is Illuminated
Oct 7
Waxing Crescent
Oct 11
First Quarter
Oct 18
Full
Oct 26
Last Quarter
Nov 3
New

Hourly Weather History & Observations

Time (EDT) Temp. Heat Index Dew Point Humidity Pressure Visibility Wind Dir Wind Speed Gust Speed Precip Events Conditions
12:53 AM 75.9 °F - 73.0 °F 91% 29.89 in 10.0 mi Calm Calm - N/A   Clear
1:53 AM 75.9 °F - 73.9 °F 94% 29.89 in 10.0 mi Calm Calm - N/A   Clear
2:53 AM 75.9 °F - 73.9 °F 94% 29.87 in 10.0 mi SSE 3.5 mph - N/A   Clear
3:53 AM 75.0 °F - 73.0 °F 94% 29.86 in 10.0 mi SE 4.6 mph - N/A   Clear
4:53 AM 75.9 °F - 73.0 °F 91% 29.85 in 10.0 mi SSE 4.6 mph - N/A   Overcast
5:53 AM 75.9 °F - 73.0 °F 91% 29.85 in 10.0 mi SSE 3.5 mph - N/A   Mostly Cloudy
6:53 AM 75.9 °F - 73.0 °F 91% 29.86 in 10.0 mi SSE 3.5 mph - N/A   Mostly Cloudy
7:53 AM 77.0 °F - 73.9 °F 90% 29.87 in 10.0 mi SSE 3.5 mph - N/A   Clear
8:53 AM 82.0 °F 88.6 °F 75.0 °F 79% 29.88 in 10.0 mi South 5.8 mph - N/A   Partly Cloudy
9:53 AM 82.9 °F 89.4 °F 73.9 °F 74% 29.88 in 10.0 mi SW 10.4 mph 18.4 mph N/A   Scattered Clouds
10:53 AM 84.0 °F 91.2 °F 73.9 °F 72% 29.87 in 10.0 mi SW 13.8 mph 20.7 mph N/A   Partly Cloudy
11:53 AM 86.0 °F 95.1 °F 75.0 °F 70% 29.86 in 10.0 mi SSW 16.1 mph 23.0 mph N/A   Scattered Clouds
12:21 PM 84.2 °F 92.3 °F 75.2 °F 74% 29.85 in 10.0 mi SW 16.1 mph 25.3 mph N/A   Mostly Cloudy
12:53 PM 81.0 °F 86.7 °F 75.0 °F 82% 29.86 in 9.0 mi WSW 11.5 mph - N/A   Overcast
1:19 PM 82.4 °F 89.5 °F 75.2 °F 79% 29.85 in 10.0 mi WSW 18.4 mph 24.2 mph 0.01 in   Scattered Clouds
1:53 PM 84.9 °F 93.3 °F 75.0 °F 72% 29.83 in 10.0 mi WSW 13.8 mph 21.9 mph 0.01 in   Partly Cloudy
2:26 PM 82.4 °F 87.2 °F 71.6 °F 70% 29.84 in 10.0 mi West 29.9 mph 38.0 mph N/A   Overcast
2:37 PM 77.0 °F - 71.6 °F 83% 29.83 in 5.0 mi West 19.6 mph 31.1 mph 0.00 in Rain Light Rain
2:53 PM 77.0 °F - 72.0 °F 84% 29.83 in 10.0 mi West 13.8 mph - 0.00 in Rain Light Rain
3:53 PM 82.0 °F 87.9 °F 73.9 °F 76% 29.82 in 10.0 mi WSW 12.7 mph 20.7 mph 0.00 in   Clear
4:53 PM 84.0 °F 91.9 °F 75.0 °F 74% 29.81 in 10.0 mi West 13.8 mph 23.0 mph N/A   Mostly Cloudy
5:13 PM 84.2 °F 92.3 °F 75.2 °F 74% 29.81 in 10.0 mi WSW 17.3 mph 21.9 mph N/A   Scattered Clouds
5:53 PM 82.9 °F 88.0 °F 72.0 °F 69% 29.82 in 10.0 mi WSW 12.7 mph - N/A   Clear
6:53 PM 82.0 °F 88.6 °F 75.0 °F 79% 29.82 in 10.0 mi West 12.7 mph - N/A   Partly Cloudy
7:53 PM 81.0 °F 87.3 °F 75.9 °F 85% 29.84 in 10.0 mi West 8.1 mph - N/A   Partly Cloudy
8:53 PM 79.0 °F - 72.0 °F 79% 29.87 in 10.0 mi WNW 6.9 mph - N/A   Clear
9:53 PM 78.1 °F - 73.9 °F 87% 29.88 in 10.0 mi WSW 3.5 mph - N/A   Partly Cloudy
10:53 PM 78.1 °F - 73.9 °F 87% 29.88 in 10.0 mi WSW 4.6 mph - N/A   Clear
11:53 PM 77.0 °F - 73.0 °F 88% 29.88 in 10.0 mi West 5.8 mph - N/A   Clear